Winslow, AZ

9:03 AM MST on April 26, 2017 (GMT -0700)
Winslow-Lindbergh Regional

Weather History for KINW - July, 2013

Change the Weather History Date:

Friday, July 5, 2013

  Actual Average Record
Temperature  
Mean Temperature 82 °F 78 °F  
Max Temperature 94 °F 95 °F 104 °F (1922)
Min Temperature 69 °F 60 °F 44 °F (1931)
Degree Days  
Heating Degree Days 0 0  
Month to date heating degree days 0 0  
Since 1 July heating degree days 0 0  
Cooling Degree Days 17 13  
Month to date cooling degree days 94 62  
Year to date cooling degree days 521 370  
Growing Degree Days 31 (Base 50)    
Moisture  
Dew Point 50 °F    
Average Humidity 40    
Maximum Humidity 61    
Minimum Humidity 18    
Precipitation  
Precipitation 0.02 in 0.02 in 1.22 in (1923)
Month to date precipitation 0.30 0.10  
Year to date precipitation 2.09 2.39  
Sea Level Pressure  
Sea Level Pressure 29.78 in    
Wind  
Wind Speed 12 mph (WSW)    
Max Wind Speed 25 mph    
Max Gust Speed 31 mph    
Visibility 10 miles    
Events      
T = Trace of Precipitation, MM = Missing Value Source: NWS Daily Summary

Daily Weather History Graph

Daily Weather History Graph

Search for Another Location

Airport or City:

Trip Planner

Search our weather history database for the weather conditions in past years. The results will help you decide how hot, cold, wet, or windy it might be!

Date:

Astronomy

Jul. 05, 2013 Rise Set
Actual Time 5:14 AM MST 7:40 PM MST
Civil Twilight 4:45 AM MST 8:09 PM MST
Nautical Twilight 4:08 AM MST 8:46 PM MST
Astronomical Twilight 3:28 AM MST 9:25 PM MST
Moon 3:14 AM MST (7/5) 5:40 PM MST (7/5)
Length of Visible Light 15h 24m
Length of Day
14h 25m
Waning Crescent, 6% of the Moon is Illuminated
Jul 5
Waning Crescent
Jul 8
New
Jul 15
First Quarter
Jul 22
Full
Jul 29
Last Quarter

Hourly Weather History & Observations

Time (MST) Temp. Dew Point Humidity Pressure Visibility Wind Dir Wind Speed Gust Speed Precip Events Conditions
12:56 AM 78.1 °F 51.1 °F 39% 29.68 in 10.0 mi SSW 12.7 mph - N/A   Clear
1:56 AM 75.9 °F 50.0 °F 40% 29.69 in 10.0 mi SSW 10.4 mph - N/A   Clear
2:56 AM 77.0 °F 51.1 °F 40% 29.71 in 10.0 mi Calm Calm - N/A   Clear
3:56 AM 79.0 °F 50.0 °F 36% 29.71 in 10.0 mi South 8.1 mph 17.3 mph N/A   Clear
4:56 AM 77.0 °F 53.1 °F 43% 29.73 in 10.0 mi Variable 3.5 mph - 0.01 in   Scattered Clouds
5:56 AM 75.9 °F 55.0 °F 48% 29.78 in 10.0 mi NW 4.6 mph - N/A   Overcast
6:06 AM 77.0 °F 53.6 °F 44% 30.05 in 10.0 mi WNW 8.1 mph - N/A   Overcast
6:56 AM 78.1 °F 55.0 °F 45% 29.81 in 10.0 mi WNW 13.8 mph 20.7 mph N/A   Partly Cloudy
7:56 AM 73.9 °F 54.0 °F 50% 29.86 in 10.0 mi West 18.4 mph 27.6 mph N/A   Overcast
8:56 AM 71.1 °F 57.9 °F 63% 29.86 in 10.0 mi SSW 17.3 mph - 0.01 in   Overcast
9:56 AM 77.0 °F 51.1 °F 40% 29.81 in 10.0 mi South 17.3 mph - N/A   Partly Cloudy
10:56 AM 73.9 °F 55.9 °F 53% 29.84 in 10.0 mi SSW 15.0 mph - N/A   Overcast
11:56 AM 78.1 °F 53.1 °F 42% 29.82 in 10.0 mi WSW 15.0 mph 24.2 mph 0.00 in   Partly Cloudy
12:56 PM 82.0 °F 51.1 °F 34% 29.78 in 10.0 mi SW 16.1 mph - N/A   Clear
1:56 PM 86.0 °F 48.9 °F 28% 29.75 in 10.0 mi SW 17.3 mph 25.3 mph N/A   Clear
2:56 PM 91.9 °F 48.0 °F 22% 29.68 in 10.0 mi West 15.0 mph - N/A   Clear
3:56 PM 93.0 °F 46.0 °F 20% 29.65 in 10.0 mi West 15.0 mph - N/A   Clear
4:56 PM 91.9 °F 43.0 °F 18% 29.67 in 10.0 mi WSW 10.4 mph - N/A   Clear
5:56 PM 91.0 °F 45.0 °F 20% 29.67 in 10.0 mi West 16.1 mph 21.9 mph N/A   Clear
6:56 PM 87.1 °F 46.9 °F 25% 29.69 in 10.0 mi NW 21.9 mph 28.8 mph N/A   Clear
7:09 PM 86.0 °F 44.6 °F 23% 29.96 in 10.0 mi NNW 19.6 mph 27.6 mph N/A   Clear
7:56 PM 82.9 °F 46.0 °F 27% 29.74 in 10.0 mi NW 12.7 mph - N/A   Partly Cloudy
8:56 PM 77.0 °F 50.0 °F 39% 29.81 in 10.0 mi WSW 6.9 mph - N/A   Clear
9:56 PM 75.9 °F 50.0 °F 40% 29.80 in 10.0 mi WSW 10.4 mph - N/A   Clear
10:56 PM 73.9 °F 50.0 °F 43% 29.83 in 10.0 mi WSW 8.1 mph - N/A   Clear
11:56 PM 73.9 °F 48.9 °F 41% 29.83 in 10.0 mi SSW 3.5 mph - N/A   Clear